Weather History for PATC - November, 2012

Change the Weather History Date:

Tuesday, November 13, 2012

  Actual Average Record
Temperature  
Mean Temperature 13 °F -  
Max Temperature 16 °F 25 °F 37 °F (2000)
Min Temperature 10 °F 16 °F 1 °F (2011)
Degree Days  
Heating Degree Days 52    
Moisture  
Dew Point 8 °F    
Average Humidity 81    
Maximum Humidity 92    
Minimum Humidity 64    
Precipitation  
Precipitation 0.00 in - - ()
Sea Level Pressure  
Sea Level Pressure 29.90 in    
Wind  
Wind Speed 35 mph (NE)    
Max Wind Speed 54 mph    
Max Gust Speed 66 mph    
Visibility 9 miles    
Events Snow    
Averages and records for this station are not official NWS values.
T = Trace of Precipitation, MM = Missing Value Source: NWS Daily Summary

Daily Weather History Graph

Daily Weather History Graph

Search for Another Location

Airport or City:

Trip Planner

Search our weather history database for the weather conditions in past years. The results will help you decide how hot, cold, wet, or windy it might be!

Date:

Astronomy

Nov. 13, 2012 Rise Set
Actual Time 10:49 AM AKST 5:01 PM AKST
Civil Twilight 9:45 AM AKST 6:06 PM AKST
Nautical Twilight 8:40 AM AKST 7:10 PM AKST
Astronomical Twilight 7:41 AM AKST 8:09 PM AKST
Moon 10:59 AM AKST (11/13) 4:45 PM AKST (11/13)
Length of Visible Light 8h 20m
Length of Day
6h 11m
Waning Crescent, 0% of the Moon is Illuminated
Nov 13
Waning Crescent
Nov 13
New
Nov 20
First Quarter
Nov 28
Full
Dec 6
Last Quarter

Hourly Weather History & Observations

Time (AKST) Temp. Windchill Dew Point Humidity Pressure Visibility Wind Dir Wind Speed Gust Speed Precip Events Conditions
12:55 AM 12.7 °F -8.5 °F 10.8 °F 92% 30.21 in 10.0 mi NE 29.9 mph - N/A Snow Light Snow Showers
1:55 AM 16.2 °F -6.5 °F 14.0 °F 91% 30.10 in 10.0 mi NE 41.4 mph 49.5 mph N/A   Mostly Cloudy
2:55 AM 16.3 °F -4.2 °F 13.6 °F 89% 30.10 in 10.0 mi NE 32.2 mph - N/A   Clear
3:55 AM 15.4 °F -2.0 °F 13.5 °F 92% 30.14 in 4.0 mi NE 20.7 mph - N/A   Mostly Cloudy
4:55 AM 15.3 °F -4.1 °F 12.7 °F 90% 30.11 in 10.0 mi NE 26.5 mph 34.5 mph N/A   Mostly Cloudy
5:55 AM 13.6 °F -9.3 °F 11.3 °F 90% 30.04 in 10.0 mi NNE 38.0 mph 44.9 mph N/A   Mostly Cloudy
6:55 AM 11.1 °F -13.3 °F 9.3 °F 92% 30.01 in 10.0 mi NNE 40.3 mph - N/A Snow Light Snow
7:55 AM 11.1 °F -12.0 °F 8.1 °F 87% 30.01 in 10.0 mi NE 34.5 mph 43.7 mph N/A   Mostly Cloudy
8:55 AM 10.6 °F -13.3 °F 7.2 °F 86% 29.99 in 10.0 mi NNE 36.8 mph 47.2 mph N/A   Mostly Cloudy
9:11 AM 10.4 °F -11.7 °F 6.8 °F 85% 30.02 in 10.0 mi NNE 29.9 mph 40.3 mph N/A   Mostly Cloudy
9:55 AM 10.4 °F -9.5 °F 7.2 °F 87% 30.03 in 10.0 mi NNE 23.0 mph - N/A   Mostly Cloudy
10:55 AM 11.5 °F -10.2 °F 6.8 °F 81% 29.99 in 10.0 mi NE 29.9 mph 39.1 mph N/A   Mostly Cloudy
11:55 AM 12.0 °F -7.3 °F 7.7 °F 83% 29.99 in 10.0 mi NE 23.0 mph 32.2 mph N/A   Mostly Cloudy
12:55 PM 12.0 °F -9.8 °F 7.5 °F 82% 29.93 in 10.0 mi ENE 31.1 mph 40.3 mph N/A   Mostly Cloudy
1:55 PM 12.9 °F -11.8 °F 7.0 °F 77% 29.84 in 10.0 mi NE 44.9 mph 50.6 mph N/A   Mostly Cloudy
2:55 PM 13.1 °F -8.4 °F 7.9 °F 80% 29.88 in 10.0 mi NE 31.1 mph 36.8 mph N/A   Mostly Cloudy
3:55 PM 14.9 °F -5.6 °F 8.6 °F 76% 29.84 in 10.0 mi NE 29.9 mph 48.3 mph N/A   Mostly Cloudy
4:55 PM 13.6 °F -9.3 °F 7.9 °F 78% 29.80 in 10.0 mi NNE 38.0 mph 48.3 mph N/A   Mostly Cloudy
5:55 PM 14.2 °F -8.6 °F 7.9 °F 76% 29.77 in 10.0 mi NE 38.0 mph 49.5 mph N/A   Mostly Cloudy
6:55 PM 14.2 °F -10.6 °F 8.1 °F 77% 29.70 in 10.0 mi ENE 48.3 mph 58.7 mph N/A   Mostly Cloudy
7:55 PM 14.7 °F -9.9 °F 7.9 °F 74% 29.68 in 10.0 mi ENE 48.3 mph 58.7 mph N/A   Mostly Cloudy
8:29 PM 15.8 °F -9.3 °F 6.8 °F 68% 29.66 in 2.0 mi ENE 54.1 mph 65.6 mph N/A   Mostly Cloudy
8:49 PM 14.0 °F -11.7 °F 6.8 °F 73% 29.68 in 4.0 mi ENE 52.9 mph 61.0 mph N/A   Mostly Cloudy
8:55 PM 14.7 °F -10.5 °F 6.8 °F 71% 29.69 in 4.0 mi ENE 51.8 mph 61.0 mph N/A   Mostly Cloudy
9:55 PM 15.8 °F -7.3 °F 5.5 °F 64% 29.71 in 10.0 mi ENE 42.6 mph 52.9 mph N/A   Mostly Cloudy
10:55 PM 11.8 °F -13.3 °F 5.9 °F 77% 29.71 in 10.0 mi NE 44.9 mph - N/A   Mostly Cloudy
11:55 PM 10.2 °F -14.8 °F 5.5 °F 81% 29.73 in 10.0 mi NE 41.4 mph 46.0 mph N/A   Clear